Location: Paddlesworth
(51.1000°N, 1.1333°E)
Time: 07:52:47
(UTC+00:00)

NOSS 3-4 (C) - Pass Details

Date: 11 May 2021
Orbit: 873 x 1339 km, 63.4° (Epoch: 06 May)

Event Time Altitude Azimuth Distance (km) Brightness Sun altitude
Rises 21:08:48 0° 315° (NW) 3,760 8.6 -12.1°
Reaches altitude 10° 21:11:17 10° 315° (NW) 2,867 7.5 -12.4°
Maximum altitude 21:18:09 90° 26° (NNE) 1,147 3.9 -13.0°
Enters shadow 21:24:13 18° 138° (SE) 2,625 5.1 -13.6°
